Location: Unspecified
(0.0000°N, 0.0000°E)
Time: 07:52:33
(UTC+00:00)

Vanguard 2 Rocket - Pass Details

Date: 13 October 2022
Orbit: 555 x 3321 km, 32.9° (Epoch: 06 December)

Event Time Altitude Azimuth Distance (km) Brightness Sun altitude
Rises 03:11:40 0° 313° (NW) 4,637 - -38.3°
Reaches altitude 10° 03:15:34 10° 319° (NW) 3,206 - -37.3°
Maximum altitude 03:22:28 44° 29° (NNE) 1,142 - -35.6°
Exits shadow 03:24:23 31° 79° (E) 1,301 8.1 -35.1°
Drops below altitude 10° 03:26:55 10° 103° (ESE) 2,074 9.5 -34.5°
Sets 03:28:58 0° 110° (ESE) 2,853 10.5 -34.0°
